This demonstration page uses our WeatherBlox Daily Observations layout. Learn more.

38.80484, -77.04692

Hourly Observations for May 24, 2020

Temp ( °F °C ) Dew Point ( °F °C ) Humidity (%) Winds ( mph kmh ) Pressure ( in mb ) Visibility ( mi km ) Precip ( " mm )
12:52 am 00:52 Partly Cloudy 70 21.1 64 17.8 82 82 ENE 8 13 30.08 1019 10 16.0934 0 0
1:29 am 01:29 Cloudy 70 21.1 65 18.3 84 84 ENE 14 22 30.08 1019 10 16.0934 0 0
1:52 am 01:52 Cloudy 69 20.6 64 17.8 84 84 ENE 10 17 30.09 1019 10 16.0934 0 0
2:14 am 02:14 Cloudy with Light Rain 69 20.6 64 17.8 84 84 ENE 15 24 30.09 1019 10 16.0934 0.001 0.001
2:44 am 02:44 Cloudy 67 19.4 64 17.8 91 91 ENE 13 20 30.1 1019 10 16.0934 0.001 0.001
2:52 am 02:52 Cloudy 66 18.9 63 17.2 90 90 ENE 13 20 30.1 1019 10 16.0934 0.001 0.001
3:19 am 03:19 Cloudy 65 18.3 62 16.7 90 90 E 13 20 30.1 1019 10 16.0934 0.001 0.001
3:36 am 03:36 Cloudy 65 18.3 62 16.7 90 90 ENE 16 26 30.1 1019 10 16.0934 0.001 0.001
3:52 am 03:52 Cloudy 65 18.3 62 16.7 90 90 ENE 14 22 30.1 1019 10 16.0934 0.001 0.001
4:52 am 04:52 Cloudy 63 17.2 61 16.1 93 93 ENE 12 19 30.13 1020 10 16.0934 0 0
5:26 am 05:26 Cloudy with Light Rain 62 16.7 60 15.6 93 93 ENE 10 17 30.14 1021 10 16.0934 0.001 0.001
5:52 am 05:52 Cloudy with Light Rain 62 16.7 60 15.6 93 93 NE 12 19 30.15 1021 10 16.0934 0.001 0.001
6:52 am 06:52 Cloudy 61 16.1 58 14.4 90 90 ENE 13 20 30.17 1022 10 16.0934 0.001 0.001
7:52 am 07:52 Cloudy 60 15.6 57 13.9 90 90 ENE 12 19 30.19 1022 10 16.0934 0 0
8:36 am 08:36 Cloudy 60 15.6 57 13.9 90 90 NE 10 17 30.21 1023 10 16.0934 0 0
8:52 am 08:52 Cloudy 61 16.1 57 13.9 87 87 ENE 12 19 30.22 1023 10 16.0934 0 0
9:52 am 09:52 Cloudy 61 16.1 57 13.9 87 87 NE 8 13 30.22 1024 10 16.0934 0 0
10:52 am 10:52 Cloudy 62 16.7 57 13.9 84 84 ENE 9 15 30.22 1024 10 16.0934 0 0
11:52 am 11:52 Cloudy 62 16.7 57 13.9 84 84 E 7 11 30.22 1024 10 16.0934 0 0
12:52 pm 12:52 Cloudy 63 17.2 57 13.9 81 81 ENE 7 11 30.23 1024 10 16.0934 0 0
1:52 pm 13:52 Cloudy 66 18.9 57 13.9 73 73 NE 3 6 30.21 1023 10 16.0934 0 0
2:26 pm 14:26 Cloudy 68 20 58 14.4 70 70 ENE 6 9 30.21 1023 10 16.0934 0 0
2:52 pm 14:52 Cloudy 69 20.6 59 15 70 70 NE 7 11 30.2 1023 9 14.48406 0 0
3:52 pm 15:52 Cloudy 68 20 58 14.4 70 70 ENE 8 13 30.19 1023 10 16.0934 0 0
4:52 pm 16:52 Cloudy 66 18.9 58 14.4 75 75 ESE 9 15 30.19 1022 10 16.0934 0 0
5:52 pm 17:52 Cloudy 65 18.3 58 14.4 78 78 ESE 9 15 30.18 1022 10 16.0934 0 0
6:52 pm 18:52 Cloudy 64 17.8 58 14.4 81 81 E 6 9 30.19 1022 10 16.0934 0 0
7:52 pm 19:52 Cloudy 64 17.8 57 13.9 78 78 ESE 6 9 30.18 1022 10 16.0934 0 0
8:52 pm 20:52 Cloudy 64 17.8 57 13.9 78 78 SE 7 11 30.2 1023 10 16.0934 0 0
9:52 pm 21:52 Cloudy 64 17.8 57 13.9 78 78 Calm 30.22 1023 10 16.0934 0 0
10:52 pm 22:52 Cloudy 64 17.8 58 14.4 81 81 SE 3 6 30.21 1023 10 16.0934 0 0
11:52 pm 23:52 Cloudy 64 17.8 58 14.4 81 81 SSE 5 7 30.21 1023 10 16.0934 0 0

Powered by AerisWeather